Regional Weather Roundup
Issued by NWS

Home | Current Version | Previous Version | Text Only | Print | Product List | Glossary Off
Versions: 1 2 3 4 5 6 7 8 9 10 11 12 13 14 15 16 17 18 19 20 21 22 23 24 25 26 27 28 29 30 31 32 33 34 35 36 37 38 39 40 41 42 43 44 45 46 47 48 49 50

000
ASUS43 KMPX 271201
RWRMN
WEATHER ROUNDUP FOR MINNESOTA
NATIONAL WEATHER SERVICE TWIN CITIES/CHANHASSEN MN
700 AM CDT SAT AUG 27 2016


NOTE: "FAIR" INDICATES FEW OR NO CLOUDS BELOW 12,000 FEET WITH NO
SIGNIFICANT WEATHER AND/OR OBSTRUCTIONS TO VISIBILITY. N/A MEANS
CURRENT SKY AND/OR WEATHER CONDITIONS ARE NOT AVAILABLE.

MNZ060>063-068>070-271300-
   Twin Cities Metro

CITY           SKY/WX    TMP DP  RH WIND       PRES   REMARKS
TWIN CITIES    CLOUDY    64  59  83 E5        30.07R
6HR MIN TEMP:  64; 6HR MAX TEMP:  65; 6HR PCP: TRACE;

ST PAUL        CLOUDY    63  58  83 E5        30.07R
CRYSTAL        CLOUDY    62  58  86 N3        30.06R
BLAINE         LGT RAIN  63  63 100 CALM      30.08R
LAKEVILLE      CLOUDY    59  59 100 CALM      30.08R
EDEN PRAIRIE   CLOUDY    64  59  83 E6        30.06R
6HR MIN TEMP:  63; 6HR MAX TEMP:  66; 6HR PCP:  0.01;

LAKEVILLE      CLOUDY    59  59 100 CALM      30.08R
SOUTH ST PAUL  CLOUDY    63  60  90 CALM      30.07R
LAKE ELMO      CLOUDY    61  59  94 CALM      30.09R
$$
MNZ001>005-007-008-013>017-022>024-027-028-271300-
   Northwest Minnesota

CITY           SKY/WX    TMP DP  RH WIND       PRES   REMARKS
BEMIDJI        DRIZZLE   58  56  94 S3        30.05S
HALLOCK        PTCLDY    54  52  94 SE8       29.94F
ROSEAU         PTCLDY    59  54  82 S6        29.98F
WARROAD        CLOUDY    57  54  88 S5        30.00S
THIEF RVR FALL LGT RAIN  59  56  89 S8        29.99F
CROOKSTON      LGT RAIN  59  57  94 S13       29.97
FOSSTON        LGT RAIN  57  55  94 SE6       30.01F
DETROIT LAKES  MOCLDY    61  57  88 SE5       30.03F
MOORHEAD       MOCLDY    61  57  88 SE5       29.99S
PARK RAPIDS    CLOUDY    59  55  87 SE6       30.05S
MAHNOMEN       LGT RAIN  60  57  90 SE6       30.01F
$$
MNZ006-009>011-018-025>026-271300-
   North Central Minnesota

CITY           SKY/WX    TMP DP  RH WIND       PRES   REMARKS
BAUDETTE       CLOUDY    57  55  93 S6        30.01S
FLAG ISLAND    MOCLDY    64  55  72 CALM      29.98S HAZE
INTL FALLS     CLOUDY    54  53  97 SE3       30.05S
6HR MIN TEMP:  51; 6HR MAX TEMP:  59;

WASKISH        CLOUDY    57  55  94 S3        30.04S
BIG FORK       CLOUDY    59  55  88 CALM      30.07S
LONGVILLE      CLOUDY    57  57 100 CALM      30.06S
GRAND RAPIDS   CLOUDY    57  55  93 CALM      30.10S
ORR            MOCLDY    55  52  88 CALM      30.06S
COOK           CLOUDY    57  55  94 CALM      30.09S
WALKER         CLOUDY    59  55  88 SE3       30.05S
$$
MNZ012-019>021-037-271300-
   Northeast Minnesota

CITY           SKY/WX    TMP DP  RH WIND       PRES   REMARKS
DULUTH         CLOUDY    57  55  93 E5        30.10R
6HR MIN TEMP:  57; 6HR MAX TEMP:  61;

ELY            MOCLDY    54  52  94 CALM      30.10S
HIBBING        CLOUDY    52  52 100 CALM      30.09S
EVELETH        CLOUDY    54  53  97 CALM      30.11R
DULUTH HARBOR  CLOUDY    61  55  82 CALM      30.10S
TWO HARBORS    MOCLDY    57  54  88 CALM      30.09S
SILVER BAY     CLOUDY    54  52  94 CALM      30.09F
G MARAIS ARPRT CLOUDY    52  46  82 E3        30.14S
$$
MNZ029>031-032-039>041-046>048-054>057-064-271300-
   West Central Minnesota

CITY           SKY/WX    TMP DP  RH WIND       PRES   REMARKS
FERGUS FALLS   CLOUDY    61  57  88 SE8       30.03F
WHEATON        CLOUDY    61  61 100 SE9       30.02S
MORRIS         CLOUDY    61  57  88 SE5       30.02F
ALEXANDRIA     CLOUDY    59  57  93 SE5       30.06S
ELBOW LAKE     CLOUDY    59  58  94 E7        30.03S
GLENWOOD       CLOUDY    57  57 100 CALM      30.06S
APPLETON       CLOUDY    61  57  88 SE5       30.03R
BENSON         CLOUDY    61  55  82 S5        30.04S
ORTONVILLE     CLOUDY    61  57  88 CALM      30.02R
MADISON        CLOUDY    61  59  94 SE3       30.03R
WILLMAR        LGT RAIN  61  59  94 CALM      30.06S
$$
MNZ033>034-036-042>043-049>051-058-059-271300-
   Central Minnesota

CITY           SKY/WX    TMP DP  RH WIND       PRES   REMARKS
ST CLOUD       CLOUDY    58  58 100 E5        30.07R
6HR MIN TEMP:  58; 6HR MAX TEMP:  60; 6HR PCP: TRACE;

SAUK CENTRE    CLOUDY    58  57  96 E3        30.06S
PAYNESVILLE    LGT RAIN  60  60 100 E3        30.06R
AITKIN         CLOUDY    61  54  77 CALM      30.07S
PINE RIVER     CLOUDY    57  57 100 SE3       30.09S
BRAINERD       CLOUDY    59  56  89 SE3       30.07S
STAPLES        CLOUDY    57  55  94 SE3       30.06S
LONG PRAIRIE   CLOUDY    57  55  94 CALM      30.06F
LITTLE FALLS   MIX PCPN  57  55  94 CALM      30.07R
LITCHFIELD     DRIZZLE   63  61  94 CALM      30.07R
BUFFALO        RAIN      60  57  90 E3        30.07S
MAPLE LAKE     RAIN      62  60  94 CALM      30.07S
HUTCHINSON     RAIN      60  60  99 SE3       30.07S
$$
MNZ037-044-045-052-053-271300-
   East Central Minnesota

CITY           SKY/WX    TMP DP  RH WIND       PRES   REMARKS
PRINCETON      CLOUDY    61  57  88 CALM      30.08R
MORA           PTCLDY    55  54  94 CALM      30.10R
CAMBRIDGE      LGT RAIN  63  55  77 CALM      30.06R
RUSH CITY      CLOUDY    58  55  92 CALM      30.08S
MOOSE LAKE     MOCLDY    55  54  94 CALM      30.08R
HINCKLEY       CLOUDY    55  55 100 CALM      30.10R
CLOQUET        MOCLDY    55  54  94 E3        30.10S
MCGREGOR       CLOUDY    55  54  94 CALM      30.09S
$$
MNZ071>073-080-081-089-090-097-098-271300-
   Southwest Minnesota

CITY           SKY/WX    TMP DP  RH WIND       PRES   REMARKS
MONTEVIDEO     LGT RAIN  61  59  94 CALM      30.05S
GRANITE FALLS  DRIZZLE   61  60  94 CALM      30.05R
CANBY          CLOUDY    62  59  92 CALM      30.04R
MARSHALL       LGT RAIN  60  59  96 CALM      30.04R FOG
REDWOOD FALLS  LGT RAIN  60  58  92 E3        30.03S
OLIVIA         LGT RAIN  59  55  88 CALM      30.04R
PIPESTONE      CLOUDY    59  57  94 E1        30.03R
WINDOM         DRIZZLE   61  59  94 E3        30.03S
WORTHINGTON    LGT RAIN  60  59  96 CALM      30.04R
JACKSON          N/A     61  59  94 SE7       30.03S FOG
TRACY          DRIZZLE   61  60  97 CALM      30.04R
SLAYTON        CLOUDY    57  57 100 E7        30.04R
$$
MNZ065>067-074>077-082>085-091>093-271300-
   South Central Minnesota

CITY           SKY/WX    TMP DP  RH WIND       PRES   REMARKS
MANKATO        CLOUDY    63  57  82 E3        30.06R
NEW ULM        LGT RAIN  61  61 100 E5        30.05S
ST JAMES       HVY RAIN  55  55 100 NE6       30.05S
FAIRMONT       CLOUDY    61  60  97 CALM      30.04R
GLENCOE        CLOUDY    61  61  99 CALM      30.06R
FARIBAULT      RAIN      61  61 100 CALM      30.07R
OWATONNA       CLOUDY    63  57  82 E3        30.06R
WASECA         DRIZZLE   59  57  94 NE5       30.07R
ALBERT LEA     RAIN      61  59  94 E7        30.04S
$$
MNZ078>079-086>088-094>096-271300-
   Southeast Minnesota

CITY           SKY/WX    TMP DP  RH WIND       PRES   REMARKS
ROCHESTER      CLOUDY    60  59  96 E9        30.06F
6HR MIN TEMP:  59; 6HR MAX TEMP:  61;

RED WING       CLOUDY    63  59  88 E5        30.06R
STANTON        CLOUDY    63  59  88 E5        30.06R
DODGE CENTER   CLOUDY    61  57  88 E7        30.06S
WINONA         CLOUDY    61  59  94 SE6       30.07S
AUSTIN         CLOUDY    61  57  88 E6        30.04S
PRESTON        CLOUDY    59  56  91 E7        30.07S
$$
ABBREVIATIONS USED IN REMARKS
   TC - TEMPERATURES IN CELSIUS
  WCI - WIND CHILL INDEX
   HX - HEAT INDEX
  VSB - VISIBILITY
$$




USA.gov is the U.S. government's official web portal to all federal, state and local government web resources and services.